CDT,Max TemperatureF,Mean TemperatureF,Min TemperatureF,Max Dew PointF,MeanDew PointF,Min DewpointF,Max Humidity, Mean Humidity, Min Humidity, Max Sea Level PressureIn, Mean Sea Level PressureIn, Min Sea Level PressureIn, Max VisibilityMiles, Mean VisibilityMiles, Min VisibilityMiles, Max Wind SpeedMPH, Mean Wind SpeedMPH, Max Gust SpeedMPH,PrecipitationIn, CloudCover, Events, WindDirDegrees
2013-5-1,78,70,62,63,60,56,90,73,60,30.04,29.97,29.88,10,10,10,8,3,16,0.00,1,Rain,97
2013-5-2,66,56,46,64,56,43,94,91,86,30.15,30.10,30.01,10,6,2,13,5,21,0.34,8,Rain,312
2013-5-3,52,45,39,41,37,35,93,79,56,30.13,30.05,29.96,10,9,5,17,10,25,0.21,8,Rain,308
2013-5-4,51,46,41,41,39,34,92,77,62,29.98,29.91,29.88,10,9,5,15,6,22,0.06,7,Rain,289
2013-5-5,66,52,41,49,41,38,89,69,43,30.07,30.00,29.95,10,10,10,14,5,22,0.00,4,,304
2013-5-6,73,62,51,53,50,47,88,71,46,30.03,29.98,29.94,10,10,10,10,5,18,0.00,5,,295
2013-5-7,80,65,50,58,53,47,96,66,36,30.06,30.01,29.96,10,10,6,7,2,,0.00,0,,304
2013-5-8,84,68,53,60,56,51,93,65,37,30.04,29.99,29.92,10,9,4,6,1,,0.00,0,,170
2013-5-9,80,72,64,64,60,56,87,70,45,30.02,29.94,29.91,10,10,10,12,2,20,0.00,3,,209
2013-5-10,81,72,64,64,61,55,100,73,43,30.01,29.92,29.86,10,8,2,12,5,17,0.01,4,Rain-Thunderstorm,295
2013-5-11,80,68,57,54,50,35,87,53,31,30.15,30.05,30.01,10,10,10,12,5,,0.00,1,,336
2013-5-12,72,58,44,52,40,33,86,55,28,30.26,30.20,30.13,10,10,10,8,1,,0.00,1,,350
2013-5-13,84,66,48,53,49,45,93,61,25,30.22,30.13,30.04,10,10,10,9,2,16,0.00,2,,186
2013-5-14,90,72,53,58,54,50,90,57,27,30.09,30.03,29.97,10,10,7,9,1,20,0.00,0,,195
2013-5-15,81,70,59,65,60,52,94,73,56,30.04,29.98,29.91,10,10,10,8,2,17,0.01,3,Rain,171
2013-5-16,70,66,63,66,63,58,96,90,78,29.93,29.88,29.83,10,6,0,8,2,,1.01,8,Fog-Rain,92
2013-5-17,84,73,64,69,65,63,100,83,54,29.93,29.88,29.83,10,8,2,4,0,,0.00,5,,308
2013-5-18,86,78,69,73,71,67,94,82,61,29.95,29.89,29.83,8,6,4,6,1,,0.00,5,,115
2013-5-19,89,79,69,70,68,65,94,75,48,29.89,29.82,29.73,10,7,2,10,2,16,0.00,0,,161
2013-5-20,86,75,66,72,67,62,88,73,58,29.96,29.82,29.72,10,9,2,21,3,39,0.36,7,Rain-Thunderstorm,244
2013-5-21,71,66,62,65,62,60,94,91,75,29.96,29.86,29.68,10,7,0,22,5,41,1.56,7,Fog-Rain-Thunderstorm,299
2013-5-22,82,70,57,64,61,55,100,85,45,29.92,29.85,29.81,10,8,1,9,2,,0.03,5,Rain,281
2013-5-23,82,70,59,67,63,58,96,77,54,30.11,30.01,29.92,10,10,8,6,1,,0.00,1,,226
2013-5-24,75,68,60,58,54,51,83,62,45,30.29,30.22,30.13,10,10,10,12,6,18,0.00,1,,76
2013-5-25,82,68,55,62,57,52,87,65,48,30.27,30.18,30.08,10,10,10,6,2,,0.00,1,,104
2013-5-26,86,74,62,70,65,58,97,73,53,30.13,30.08,30.01,10,8,1,9,2,18,0.19,3,Rain-Thunderstorm,177
2013-5-27,86,74,64,68,65,63,97,72,49,30.02,29.96,29.87,10,9,3,10,2,18,0.00,2,,192
2013-5-28,87,76,69,66,65,64,87,66,49,29.94,29.88,29.83,10,10,10,9,3,17,0.00,1,,185
2013-5-29,86,80,73,69,66,65,79,66,49,29.96,29.89,29.80,10,10,10,8,3,,0.00,3,,140
2013-5-30,82,76,71,72,69,66,90,78,67,29.89,29.84,29.78,10,10,8,9,4,,0.07,6,Rain-Thunderstorm,156
2013-5-31,90,79,69,74,71,66,100,79,59,29.87,29.82,29.72,10,10,2,15,3,22,0.13,6,Rain-Thunderstorm,179